User: anonymous   Login
Location: Unspecified
(0.0000°N, 0.0000°E)
Time: 22:12:48
(UTC+00:00)
Language:

COSMOS 2251 DEB - Orbit

View from above orbital plane
View from above orbital plane
View from above satellite
View from above satellite

Ground track
Ground track

The orbit data is extracted from the following two-line orbital elements,

1 47068U 93036BXY 24056.52856176  .00005045  00000-0  14628-2 0  9990
2 47068  74.0310 354.8000 0023805 240.4595 119.4189 14.44487647522516
Epoch (UTC): 25 February 2024 12:41:07
Eccentricity: 0.0023805
inclination: 74.0310°
perigee height: 727 km
apogee height: 760 km
right ascension of ascending node: 354.8000°
argument of perigee: 240.4595°
revolutions per day: 14.44487647
mean anomaly at epoch: 119.4189°
orbit number at epoch: 52251

The dashed part of the orbit path shows where the satellite is in the earth's shadow,  

DLR